Flag for Germany Weather past 2 weeks in Steinfurt, North Rhine-Westphalia, Germany

Now
68 °F

Mild.


Feels Like: 68 °F
Forecast: 61 / 74 °F
Wind: 1 mph from West

Location: Rheine-Bentlage

Current Time: Jul 5, 2015 at 8:16:06 AM

Latest Report: Jul 5, 2015 at 7:20 AM


Visibility: N/A

Pressure: 30.09 "Hg

Humidity: 88%

Dew point: 64 °F

Location of SteinfurtLocation

Historic Weather in Steinfurt — Graph

°F

Steinfurt temperature yesterday

Maximum temperature yesterday: 95 °F (at 2:20 PM)
Minimum temperature yesterday: 68 °F (at 4:20 AM)
Average temperature yesterday: 82 °F

Past Weeks' High & Low Weather Summary

 TemperatureHumidityPressure
High97 °F (Jul 2, 4:20 PM)100% (Jun 22, 7:20 AM)30.27 "Hg (Jun 22, 7:20 AM)
Low46 °F (Jun 23, 4:20 AM)29% (Jul 1, 3:20 PM)29.68 "Hg (Jun 22, 7:20 PM)
Average67 °F68%30.07 "Hg
* Reported Jun 20 6:20 AM — Jul 5 6:20 AM, Steinfurt, Weather by CustomWeather, © 2015

Note: Actual official high and low records may vary slightly from our data, if they occured in-between our weather recording intervals... More about our weather records

Advertising

Steinfurt weather history for previous 24 hours

 ConditionsComfort  
Time TempWeatherWind HumidityBarometerVisibility
6:20 AM
Sun, Jul 5
66 °FMild.No wind88%30.09 "HgN/A
5:20 AM64 °FMild.3 mph94%30.09 "HgN/A
4:20 AM70 °FMild.2 mph78%30.09 "HgN/A
3:20 AM70 °FMild.5 mph78%30.12 "HgN/A
2:20 AM72 °FMild.5 mph73%30.12 "HgN/A
1:20 AM72 °FMild.3 mph73%30.09 "HgN/A
12:20 AM72 °FMild.6 mph78%30.09 "HgN/A
11:20 PM
Sat, Jul 4
75 °FMild.6 mph69%30.09 "HgN/A
10:20 PM79 °FWarm.6 mph58%30.09 "HgN/A
9:20 PM82 °FWarm.8 mph51%30.09 "HgN/A
8:20 PM86 °FPleasantly warm.7 mph38%30.09 "HgN/A
7:20 PM90 °FHot.14 mph46%30.07 "HgN/A
6:20 PM93 °FExtremely hot.10 mph47%30.04 "HgN/A
5:20 PM95 °FExtremely hot.13 mph41%30.07 "HgN/A
4:20 PM95 °FExtremely hot.13 mph41%30.04 "HgN/A
3:20 PM95 °FExtremely hot.7 mph39%30.04 "HgN/A
2:20 PM95 °FExtremely hot.7 mph41%30.04 "HgN/A
1:20 PM93 °FExtremely hot.6 mph47%30.04 "HgN/A
12:20 PM93 °FExtremely hot.7 mph47%30.04 "HgN/A
11:20 AM90 °FHot.8 mph52%30.04 "HgN/A
10:20 AM84 °FWarm.7 mph62%30.04 "HgN/A
9:20 AM82 °FWarm.6 mph62%30.07 "HgN/A
8:20 AM75 °FMild.3 mph78%30.07 "HgN/A
Weather by CustomWeather, © 2015

See weather overviewHow to use our weather pages